STARLINK-35393

Last updated on Mon Oct 20 2025 00:02:07 GMT+0000 (Coordinated Universal Time)

1 65827U 25221E 25292.25002315 -.01556568 00000+0 -28597-1 0 9997 2 65827 53.1606 27.8125 0001057 82.8976 263.0784 15.51582629 4434
UTC large
Height (km)
Speed (km/s)
/
Latitude / Longitude
Inclination (degrees)
Orbital Period (minutes)
Azimuth
Elevation
Range (km)
Doppler Factor

Next 0 passes for location: London (51.5072 / 0.1276)

Sorry there are no passes over London.